Time,TemperatureF,DewpointF,PressureIn,WindDirection,WindDirectionDegrees,WindSpeedMPH,WindSpeedGustMPH,Humidity,HourlyPrecipIn,Conditions,Clouds,dailyrainin,SoftwareType,DateUTC
2013-06-06 00:03:00,74.0,74.0,29.91,NNE,23,1.0,3.0,100,0.03,,,0.33,,2013-06-06 04:03:00,
2013-06-06 00:13:00,74.0,74.0,29.91,NNE,23,1.0,3.0,100,0.03,,,0.33,,2013-06-06 04:13:00,
2013-06-06 00:23:00,74.0,74.0,29.90,NE,41,1.0,7.0,100,0.03,,,0.35,,2013-06-06 04:23:00,
2013-06-06 00:33:00,74.0,74.0,29.89,NNE,25,3.0,7.0,100,0.02,,,0.35,,2013-06-06 04:33:00,
2013-06-06 00:42:00,74.0,74.0,29.88,East,85,1.0,7.0,100,0.03,,,0.36,,2013-06-06 04:42:00,
2013-06-06 00:53:00,74.0,74.0,29.88,East,85,1.0,7.0,100,0.03,,,0.36,,2013-06-06 04:53:00,
2013-06-06 01:02:00,74.0,74.0,29.88,ENE,62,2.0,9.0,100,0.02,,,0.36,,2013-06-06 05:02:00,
2013-06-06 01:12:00,74.0,74.0,29.87,ENE,74,3.0,3.0,100,0.02,,,0.37,,2013-06-06 05:12:00,
2013-06-06 01:22:00,74.0,74.0,29.87,ENE,74,3.0,3.0,100,0.02,,,0.37,,2013-06-06 05:22:00,
2013-06-06 01:32:00,74.0,74.0,29.87,ESE,110,1.0,6.0,100,0.02,,,0.37,,2013-06-06 05:32:00,
2013-06-06 01:42:00,74.0,74.0,29.87,ESE,110,1.0,6.0,100,0.02,,,0.37,,2013-06-06 05:42:00,
2013-06-06 01:52:00,74.0,74.0,29.86,NNE,25,0.0,4.0,100,0.02,,,0.38,,2013-06-06 05:52:00,
2013-06-06 02:02:00,75.0,75.0,29.86,East,100,4.0,7.0,100,0.03,,,0.39,,2013-06-06 06:02:00,
2013-06-06 02:12:00,75.0,75.0,29.85,East,81,2.0,7.0,100,0.03,,,0.40,,2013-06-06 06:12:00,
2013-06-06 02:22:00,75.0,75.0,29.85,East,81,2.0,7.0,100,0.03,,,0.40,,2013-06-06 06:22:00,
2013-06-06 02:32:00,75.0,75.0,29.85,ESE,109,2.0,8.0,100,0.03,,,0.40,,2013-06-06 06:32:00,
2013-06-06 02:42:00,75.0,75.0,29.85,ESE,109,2.0,8.0,100,0.03,,,0.40,,2013-06-06 06:42:00,
2013-06-06 02:52:00,75.0,75.0,29.83,NE,54,6.0,7.0,100,0.03,,,0.41,,2013-06-06 06:52:00,
2013-06-06 03:02:00,74.0,74.0,29.83,NNE,25,2.0,7.0,100,0.03,,,0.42,,2013-06-06 07:02:00,
2013-06-06 03:12:00,74.0,74.0,29.83,NNE,25,2.0,7.0,100,0.03,,,0.42,,2013-06-06 07:12:00,
2013-06-06 03:22:00,74.0,74.0,29.83,ESE,122,11.0,11.0,100,0.08,,,0.48,,2013-06-06 07:22:00,
2013-06-06 03:32:00,74.0,74.0,29.82,ESE,121,0.0,6.0,100,0.18,,,0.58,,2013-06-06 07:32:00,
2013-06-06 03:42:00,74.0,74.0,29.82,ESE,121,0.0,6.0,100,0.18,,,0.58,,2013-06-06 07:42:00,
2013-06-06 03:52:00,74.0,74.0,29.82,ESE,111,7.0,7.0,100,0.28,,,0.69,,2013-06-06 07:52:00,
2013-06-06 04:02:00,74.0,74.0,29.80,ENE,71,1.0,7.0,100,0.37,,,0.79,,2013-06-06 08:02:00,
2013-06-06 04:12:00,74.0,74.0,29.79,North,0,4.0,8.0,100,0.45,,,0.93,,2013-06-06 08:12:00,
2013-06-06 04:22:00,74.0,74.0,29.79,North,0,4.0,8.0,100,0.45,,,0.93,,2013-06-06 08:22:00,
2013-06-06 04:32:00,74.0,74.0,29.79,NE,35,5.0,11.0,100,0.43,,,1.01,,2013-06-06 08:32:00,
2013-06-06 04:42:00,74.0,74.0,29.78,North,0,0.0,14.0,100,0.33,,,1.03,,2013-06-06 08:42:00,
2013-06-06 04:52:00,74.0,74.0,29.78,North,0,0.0,14.0,100,0.33,,,1.03,,2013-06-06 08:52:00,
2013-06-06 05:02:00,73.0,73.0,29.77,North,2,2.0,5.0,100,0.33,,,1.12,,2013-06-06 09:02:00,
2013-06-06 05:12:00,74.0,74.0,29.76,ENE,57,0.0,7.0,100,0.24,,,1.18,,2013-06-06 09:12:00,
2013-06-06 05:22:00,74.0,74.0,29.76,ENE,57,0.0,7.0,100,0.24,,,1.18,,2013-06-06 09:22:00,
2013-06-06 05:33:00,74.0,74.0,29.78,ESE,113,6.0,9.0,100,0.40,,,1.41,,2013-06-06 09:33:00,
2013-06-06 05:43:00,74.0,74.0,29.78,ESE,113,6.0,9.0,100,0.40,,,1.41,,2013-06-06 09:43:00,
2013-06-06 05:53:00,74.0,74.0,29.75,East,94,1.0,10.0,100,0.59,,,1.62,,2013-06-06 09:53:00,
2013-06-06 06:03:00,74.0,74.0,29.75,ESE,121,5.0,11.0,100,0.56,,,1.67,,2013-06-06 10:03:00,
2013-06-06 06:12:00,74.0,74.0,29.74,East,81,3.0,9.0,100,0.51,,,1.70,,2013-06-06 10:12:00,
2013-06-06 06:23:00,74.0,74.0,29.74,East,81,3.0,9.0,100,0.51,,,1.70,,2013-06-06 10:23:00,
2013-06-06 06:33:00,74.0,74.0,29.73,SE,138,0.0,9.0,100,0.37,,,1.78,,2013-06-06 10:33:00,
2013-06-06 06:42:00,74.0,74.0,29.73,ESE,123,4.0,9.0,100,0.26,,,1.88,,2013-06-06 10:42:00,
2013-06-06 06:53:00,74.0,74.0,29.73,ESE,123,4.0,9.0,100,0.26,,,1.88,,2013-06-06 10:53:00,
2013-06-06 07:02:00,74.0,74.0,29.74,East,83,3.0,11.0,100,0.29,,,1.96,,2013-06-06 11:02:00,
2013-06-06 07:12:00,74.0,74.0,29.74,East,83,3.0,11.0,100,0.29,,,1.96,,2013-06-06 11:12:00,
2013-06-06 07:22:00,74.0,74.0,29.74,ESE,122,9.0,9.0,100,0.59,,,2.29,,2013-06-06 11:22:00,
2013-06-06 07:32:00,74.0,74.0,29.74,South,170,8.0,15.0,100,0.68,,,2.43,,2013-06-06 11:32:00,
2013-06-06 07:42:00,74.0,74.0,29.74,South,170,8.0,15.0,100,0.68,,,2.43,,2013-06-06 11:42:00,
2013-06-06 07:52:00,74.0,74.0,29.73,ESE,122,7.0,11.0,100,0.56,,,2.44,,2013-06-06 11:52:00,
2013-06-06 08:03:00,74.0,74.0,29.74,ESE,116,6.0,15.0,100,0.45,,,2.44,,2013-06-06 12:03:00,
2013-06-06 08:12:00,74.0,74.0,29.74,ESE,116,6.0,15.0,100,0.45,,,2.44,,2013-06-06 12:12:00,
2013-06-06 08:23:00,74.0,74.0,29.74,ESE,114,7.0,14.0,100,0.15,,,2.47,,2013-06-06 12:23:00,
2013-06-06 08:33:00,74.0,74.0,29.74,East,92,1.0,16.0,100,0.06,,,2.49,,2013-06-06 12:33:00,
2013-06-06 08:43:00,74.0,74.0,29.74,ESE,119,6.0,9.0,100,0.10,,,2.54,,2013-06-06 12:43:00,
2013-06-06 08:53:00,74.0,74.0,29.74,ESE,119,6.0,9.0,100,0.10,,,2.54,,2013-06-06 12:53:00,
2013-06-06 09:03:00,74.0,74.0,29.75,ENE,71,1.0,17.0,100,0.20,,,2.64,,2013-06-06 13:03:00,
2013-06-06 09:13:00,74.0,74.0,29.73,SE,135,6.0,14.0,100,0.35,,,2.82,,2013-06-06 13:13:00,
2013-06-06 09:23:00,74.0,74.0,29.73,SE,135,6.0,14.0,100,0.35,,,2.82,,2013-06-06 13:23:00,
2013-06-06 09:33:00,74.0,74.0,29.72,North,10,4.0,7.0,100,0.46,,,2.95,,2013-06-06 13:33:00,
2013-06-06 09:43:00,74.0,74.0,29.73,SE,139,4.0,9.0,100,0.43,,,2.97,,2013-06-06 13:43:00,
2013-06-06 09:53:00,74.0,74.0,29.73,SE,139,4.0,9.0,100,0.43,,,2.97,,2013-06-06 13:53:00,
2013-06-06 10:03:00,74.0,74.0,29.72,SSE,148,9.0,16.0,100,0.37,,,3.01,,2013-06-06 14:03:00,
2013-06-06 10:13:00,75.0,75.0,29.72,SE,135,11.0,28.0,100,0.28,,,3.11,,2013-06-06 14:13:00,
2013-06-06 10:23:00,75.0,75.0,29.72,SE,135,11.0,28.0,100,0.28,,,3.11,,2013-06-06 14:23:00,
2013-06-06 10:33:00,75.0,75.0,29.70,ESE,122,12.0,20.0,100,0.21,,,3.16,,2013-06-06 14:33:00,
2013-06-06 10:43:00,75.0,75.0,29.70,ESE,122,12.0,20.0,100,0.21,,,3.16,,2013-06-06 14:43:00,
2013-06-06 10:53:00,76.0,76.0,29.72,SSE,157,13.0,29.0,100,0.22,,,3.19,,2013-06-06 14:53:00,
2013-06-06 11:03:00,76.0,76.0,29.71,SSE,168,13.0,20.0,100,0.23,,,3.24,,2013-06-06 15:03:00,
2013-06-06 11:13:00,75.0,75.0,29.71,SE,144,9.0,37.0,100,0.29,,,3.40,,2013-06-06 15:13:00,
2013-06-06 11:23:00,75.0,75.0,29.71,SE,144,9.0,37.0,100,0.29,,,3.40,,2013-06-06 15:23:00,
2013-06-06 11:33:00,74.0,74.0,29.71,SSE,163,11.0,19.0,100,0.27,,,3.41,,2013-06-06 15:33:00,
2013-06-06 11:43:00,74.0,74.0,29.71,SSE,163,11.0,19.0,100,0.27,,,3.41,,2013-06-06 15:43:00,
2013-06-06 11:53:00,76.0,76.0,29.71,SSE,150,13.0,26.0,100,0.24,,,3.42,,2013-06-06 15:53:00,
2013-06-06 12:03:00,77.0,77.0,29.68,SSW,206,8.0,29.0,100,0.19,,,3.42,,2013-06-06 16:03:00,
2013-06-06 12:13:00,77.0,77.0,29.68,SSW,206,8.0,29.0,100,0.19,,,3.42,,2013-06-06 16:13:00,
2013-06-06 12:23:00,77.0,77.0,29.69,South,173,18.0,45.0,100,0.03,,,3.42,,2013-06-06 16:23:00,
2013-06-06 12:33:00,77.0,77.0,29.69,South,173,18.0,45.0,100,0.03,,,3.42,,2013-06-06 16:33:00,
2013-06-06 12:44:00,77.0,77.0,29.69,South,173,18.0,45.0,100,0.03,,,3.42,,2013-06-06 16:44:00,
2013-06-06 12:53:00,78.0,78.0,29.70,South,180,15.0,29.0,100,0.00,,,3.42,,2013-06-06 16:53:00,
2013-06-06 13:03:00,80.0,80.0,29.70,South,178,14.0,25.0,100,0.00,,,3.42,,2013-06-06 17:03:00,
2013-06-06 13:13:00,80.0,80.0,29.69,South,175,17.0,23.0,100,0.00,,,3.27,,2013-06-06 17:13:00,
2013-06-06 13:23:00,80.0,80.0,29.69,South,175,17.0,23.0,100,0.00,,,3.27,,2013-06-06 17:23:00,
2013-06-06 13:33:00,79.0,79.0,29.69,SSE,161,19.0,36.0,100,0.00,,,3.27,,2013-06-06 17:33:00,
2013-06-06 13:43:00,79.0,79.0,29.69,SSE,161,19.0,36.0,100,0.00,,,3.27,,2013-06-06 17:43:00,
2013-06-06 13:53:00,80.0,80.0,29.70,South,184,13.0,36.0,100,0.00,,,3.27,,2013-06-06 17:53:00,
2013-06-06 14:03:00,81.0,81.0,29.69,SSE,156,12.0,28.0,100,0.00,,,3.27,,2013-06-06 18:03:00,
2013-06-06 14:13:00,81.0,81.0,29.69,SSE,156,12.0,28.0,100,0.00,,,3.27,,2013-06-06 18:13:00,
2013-06-06 14:23:00,81.0,81.0,29.68,South,174,17.0,30.0,100,0.00,,,3.27,,2013-06-06 18:23:00,
2013-06-06 14:33:00,80.0,80.0,29.69,South,174,20.0,24.0,100,0.00,,,3.25,,2013-06-06 18:33:00,
2013-06-06 14:43:00,80.0,80.0,29.69,South,174,20.0,24.0,100,0.00,,,3.25,,2013-06-06 18:43:00,
2013-06-06 14:53:00,80.0,80.0,29.67,SSE,166,12.0,29.0,100,0.00,,,3.25,,2013-06-06 18:53:00,
2013-06-06 15:03:00,81.0,81.0,29.67,South,180,11.0,25.0,100,0.00,,,3.25,,2013-06-06 19:03:00,
2013-06-06 15:13:00,80.0,80.0,29.68,SSE,164,10.0,27.0,100,0.00,,,3.24,,2013-06-06 19:13:00,
2013-06-06 15:23:00,80.0,80.0,29.68,SSE,164,10.0,27.0,100,0.00,,,3.24,,2013-06-06 19:23:00,
2013-06-06 15:33:00,79.0,79.0,29.68,South,179,12.0,24.0,100,0.00,,,3.24,,2013-06-06 19:33:00,
2013-06-06 15:43:00,79.0,79.0,29.68,South,179,12.0,24.0,100,0.00,,,3.24,,2013-06-06 19:43:00,
2013-06-06 15:53:00,80.0,80.0,29.67,SSE,165,10.0,27.0,100,0.00,,,3.24,,2013-06-06 19:53:00,
2013-06-06 16:03:00,81.0,81.0,29.67,SSW,197,10.0,28.0,100,0.00,,,3.24,,2013-06-06 20:03:00,
2013-06-06 16:13:00,81.0,81.0,29.67,SSW,197,10.0,28.0,100,0.00,,,3.24,,2013-06-06 20:13:00,
2013-06-06 16:23:00,81.0,81.0,29.67,SSE,161,5.0,23.0,100,0.00,,,3.24,,2013-06-06 20:23:00,
2013-06-06 16:33:00,81.0,81.0,29.67,SSW,210,3.0,23.0,100,0.00,,,3.23,,2013-06-06 20:33:00,
2013-06-06 16:42:00,81.0,81.0,29.67,SSW,210,3.0,23.0,100,0.00,,,3.23,,2013-06-06 20:42:00,
2013-06-06 16:53:00,82.0,82.0,29.67,SSW,210,8.0,23.0,100,0.00,,,3.23,,2013-06-06 20:53:00,
2013-06-06 17:03:00,83.0,83.0,29.67,South,191,5.0,18.0,100,0.00,,,3.23,,2013-06-06 21:03:00,
2013-06-06 17:13:00,81.0,81.0,29.67,SW,220,5.0,14.0,100,0.00,,,3.23,,2013-06-06 21:13:00,
2013-06-06 17:23:00,81.0,81.0,29.67,SW,220,5.0,14.0,100,0.00,,,3.23,,2013-06-06 21:23:00,
2013-06-06 17:33:00,81.0,81.0,29.68,SSW,213,7.0,22.0,100,0.00,,,3.22,,2013-06-06 21:33:00,
2013-06-06 17:53:00,83.0,83.0,29.70,SSW,200,9.0,18.0,100,0.00,,,3.22,,2013-06-06 21:53:00,
2013-06-06 18:03:00,80.0,80.0,29.70,SSW,194,8.0,15.0,100,0.00,,,3.22,,2013-06-06 22:03:00,
2013-06-06 18:13:00,82.0,82.0,29.70,SSW,204,8.0,17.0,100,0.00,,,3.21,,2013-06-06 22:13:00,
2013-06-06 18:23:00,82.0,82.0,29.70,SSW,204,8.0,17.0,100,0.00,,,3.21,,2013-06-06 22:23:00,
2013-06-06 18:53:00,80.0,80.0,29.71,SSW,196,7.0,17.0,100,0.00,,,3.21,,2013-06-06 22:53:00,
2013-06-06 19:02:00,79.0,79.0,29.72,SSW,213,2.0,13.0,100,0.00,,,3.21,,2013-06-06 23:02:00,
2013-06-06 19:13:00,79.0,79.0,29.72,SSW,213,2.0,13.0,100,0.00,,,3.21,,2013-06-06 23:13:00,
2013-06-06 19:22:00,78.0,78.0,29.72,SW,216,5.0,12.0,100,0.00,,,3.17,,2013-06-06 23:22:00,
2013-06-06 19:33:00,78.0,78.0,29.72,SW,225,5.0,13.0,100,0.00,,,3.17,,2013-06-06 23:33:00,
2013-06-06 19:43:00,78.0,78.0,29.72,SW,225,5.0,13.0,100,0.00,,,3.17,,2013-06-06 23:43:00,
2013-06-06 19:52:00,78.0,78.0,29.72,SSW,209,6.0,17.0,100,0.00,,,3.17,,2013-06-06 23:52:00,
2013-06-06 20:02:00,78.0,78.0,29.72,SE,133,3.0,15.0,100,0.00,,,3.17,,2013-06-07 00:02:00,
2013-06-06 20:12:00,78.0,78.0,29.72,SE,133,3.0,15.0,100,0.00,,,3.17,,2013-06-07 00:12:00,
2013-06-06 20:22:00,78.0,78.0,29.73,SW,233,6.0,9.0,100,0.00,,,3.14,,2013-06-07 00:22:00,
2013-06-06 20:32:00,78.0,78.0,29.73,SW,231,4.0,11.0,100,0.00,,,3.14,,2013-06-07 00:32:00,
2013-06-06 20:42:00,78.0,78.0,29.73,SW,231,4.0,11.0,100,0.00,,,3.14,,2013-06-07 00:42:00,
2013-06-06 20:52:00,77.0,77.0,29.74,South,184,1.0,11.0,100,0.00,,,3.14,,2013-06-07 00:52:00,
2013-06-06 21:03:00,77.0,77.0,29.75,SW,222,14.0,14.0,100,0.00,,,3.14,,2013-06-07 01:03:00,
2013-06-06 21:12:00,77.0,77.0,29.75,SSW,213,5.0,14.0,100,0.00,,,3.14,,2013-06-07 01:12:00,
2013-06-06 21:22:00,77.0,77.0,29.75,SSW,213,5.0,14.0,100,0.00,,,3.14,,2013-06-07 01:22:00,
2013-06-06 21:32:00,77.0,77.0,29.76,SSW,209,3.0,13.0,100,0.00,,,3.10,,2013-06-07 01:32:00,
2013-06-06 21:42:00,77.0,77.0,29.76,SSW,209,3.0,13.0,100,0.00,,,3.10,,2013-06-07 01:42:00,
2013-06-06 21:52:00,77.0,77.0,29.76,SSW,209,3.0,13.0,100,0.00,,,3.10,,2013-06-07 01:52:00,
2013-06-06 22:02:00,77.0,77.0,29.76,SSW,209,3.0,13.0,100,0.00,,,3.10,,2013-06-07 02:02:00,
2013-06-06 22:12:00,77.0,77.0,29.76,SSW,209,3.0,13.0,100,0.00,,,3.10,,2013-06-07 02:12:00,
2013-06-06 22:22:00,77.0,77.0,29.78,SW,235,2.0,7.0,100,0.00,,,3.10,,2013-06-07 02:22:00,
2013-06-06 22:32:00,77.0,77.0,29.80,SSW,213,5.0,10.0,100,0.00,,,3.07,,2013-06-07 02:32:00,
2013-06-06 22:42:00,77.0,77.0,29.80,SSW,213,5.0,10.0,100,0.00,,,3.07,,2013-06-07 02:42:00,
2013-06-06 22:52:00,77.0,77.0,29.81,SSW,213,7.0,9.0,100,0.00,,,3.07,,2013-06-07 02:52:00,
2013-06-06 23:02:00,77.0,77.0,29.81,SW,231,8.0,10.0,100,0.00,,,3.07,,2013-06-07 03:02:00,
2013-06-06 23:12:00,77.0,77.0,29.82,SW,236,3.0,8.0,100,0.00,,,3.05,,2013-06-07 03:12:00,
2013-06-06 23:22:00,77.0,77.0,29.82,SW,236,3.0,8.0,100,0.00,,,3.05,,2013-06-07 03:22:00,
2013-06-06 23:33:00,77.0,77.0,29.82,SW,236,3.0,8.0,100,0.00,,,3.05,,2013-06-07 03:33:00,
2013-06-06 23:43:00,77.0,77.0,29.82,SW,236,3.0,8.0,100,0.00,,,3.05,,2013-06-07 03:43:00,
2013-06-06 23:53:00,77.0,77.0,29.82,WSW,253,3.0,11.0,100,0.00,,,3.05,,2013-06-07 03:53:00,